Location: Conflandey
(47.7287°N, 6.0456°E)
Time: 02:23:36
(UTC+00:00)

Cosmos 1697 Rocket - Pass Details

Date: 24 October 2021
Orbit: 834 x 842 km, 71.0° (Epoch: 28 November)

Event Time Altitude Azimuth Distance (km) Brightness Sun altitude
Rises 17:09:06 0° 233° (SW) 3,388 7.1 -7.0°
Reaches altitude 10° 17:11:43 10° 241° (WSW) 2,456 6.5 -7.5°
Maximum altitude 17:16:55 37° 308° (NW) 1,298 4.2 -8.3°
Drops below altitude 10° 17:22:07 10° 15° (NNE) 2,465 4.9 -9.2°
Sets 17:24:46 0° 24° (NNE) 3,402 5.5 -9.7°
